Regional Weather Roundup
Issued by NWS Albany, NY

Home | Current Version | Previous Version | Text Only | Print | Product List | Glossary On
Versions: 1 2 3 4 5 6 7 8 9 10 11 12 13 14 15 16 17 18 19 20 21 22 23 24 25 26 27 28 29 30 31 32 33 34 35 36 37 38 39 40 41 42 43 44 45 46 47 48 49 50
000
ASUS41 KALY 260310
RWRALY

NEW YORK STATE HOURLY WEATHER ROUNDUP
NATIONAL WEATHER SERVICE ALBANY NY
1000 PM EST SUN FEB 25 2018

NOTE: "FAIR" INDICATES FEW OR NO CLOUDS BELOW 12,000 FEET WITH NO
SIGNIFICANT WEATHER AND/OR NO OBSTRUCTIONS TO VISIBILITY.

NYZ032-033-038>043-046>054-057>066-NYZ062>081-082-084-260400-
EAST


CITY           SKY/WX    TMP DP  RH WIND       PRES   REMARKS
ALBANY         CLOUDY    41  35  79 S7        29.98F
GLENS FALLS    CLOUDY    34  34 100 CALM      29.97F FOG
POUGHKEEPSIE   CLOUDY    42  40  92 CALM      30.00S FOG
MONTGOMERY     FOG       41  40  96 CALM      29.99S VSB 1/2
WHITE PLAINS     N/A     41  41 100 NW6       30.00S FOG
ISLIP          CLOUDY    41  41 100 W3        30.02R
NEW YORK CITY  CLOUDY    44  40  85 NW3       30.02R
CENTRAL PARK   CLOUDY    43  41  93 CALM      30.05R FOG
$$

NYZ005>009-017-018-044>046-055-056-260400-
CENTRAL


CITY           SKY/WX    TMP DP  RH WIND       PRES   REMARKS
FULTON         FAIR      42  29  59 W18G32    29.98R
SYRACUSE       FAIR      38  34  85 W7        29.98R WCI  33
ROME           FAIR      32  32 100 NW5       29.99R WCI  27
ELMIRA         FOG       36  36 100 E3        29.96R VSB 1
BINGHAMTON     FAIR      41  39  93 SW8       29.94R
$$

NYZ026>034-041>043-087-260400-
NORTH


CITY           SKY/WX    TMP DP  RH WIND       PRES   REMARKS
WATERTOWN      FAIR      39  30  70 SW18G30   29.94R WCI  30
FORT DRUM      NOT AVBL
OGDENSBURG     FAIR      39  32  75 SW9G20    29.89R WCI  33
MASSENA        FAIR      41  32  70 SW13G23   29.88R
SARANAC LAKE   FAIR      35  32  88 SW6       29.86R WCI  30
PLATTSBURGH    FAIR      37  33  85 VRB5      29.89R WCI  33
$$

NYZ001>004-010>016-019>021-085-260400-
WEST


CITY           SKY/WX    TMP DP  RH WIND       PRES   REMARKS
NIAGARA FALLS  FAIR      39  28  64 SW20G26   30.01R WCI  29
BUFFALO        FAIR      35  30  82 SW17G25   30.02R WCI  25
DUNKIRK        FAIR      37  30  75 SW15G24   30.05R WCI  28
JAMESTOWN        N/A    N/A N/A N/A MISG        N/A
WELLSVILLE     FAIR      41  30  65 W14       29.98R
ROCHESTER      FAIR      40  30  67 W17G25    29.99R WCI  31
PENN YAN       FAIR      42  31  64 SW12      29.97R
$$

             KEY
       WCI = WIND CHILL INDEX
       VSB = VISIBILITY
       HX  = HEAT INDEX
$$



USA.gov is the U.S. government's official web portal to all federal, state and local government web resources and services.